• In Kazakhstan
  • List of Countries
  • For 7 days
  • Water Temperature
  • Satellite Maps
  • Weather Map
  • News
  • Weather Widgets
  • user-avatar
    Login

    Hourly Weather Kabul

    Today, 20 June, Thursday

    Time Temperature Precipitation Wind Pressure Humidity
    00:00 +22°C° 0 mm 1 mps 608 mmHg 26%
    01:00 +22°C° 0 mm 1 mps 608 mmHg 27%
    02:00 +21°C° 0 mm 1 mps 608 mmHg 29%
    03:00 +20°C° 0 mm 1 mps 607 mmHg 29%
    04:00 +20°C° 0 mm 1 mps 607 mmHg 30%
    05:00 +19°C° 0 mm 1 mps 607 mmHg 33%
    06:00 +21°C° 0 mm 1 mps 608 mmHg 29%
    07:00 +22°C° 0 mm 1 mps 608 mmHg 26%
    08:00 +24°C° 0 mm 1 mps 609 mmHg 22%
    09:00 +25°C° 0 mm 1 mps 610 mmHg 21%
    10:00 +26°C° 0 mm 2 mps 610 mmHg 19%
    11:00 +27°C° 0 mm 2 mps 610 mmHg 17%
    12:00 +28°C° 0 mm 2 mps 610 mmHg 17%
    13:00 +29°C° 0 mm 3 mps 610 mmHg 16%
    14:00 +30°C° 0 mm 3 mps 610 mmHg 16%
    15:00 +29°C° 0 mm 5 mps 609 mmHg 19%
    16:00 +28°C° 0 mm 6 mps 609 mmHg 22%
    17:00 +27°C° 0 mm 8 mps 608 mmHg 25%
    18:00 +26°C° 0 mm 6 mps 609 mmHg 27%
    19:00 +25°C° 0 mm 4 mps 609 mmHg 29%
    20:00 +24°C° 0 mm 1 mps 609 mmHg 31%
    21:00 +24°C° 0 mm 1 mps 609 mmHg 33%
    22:00 +23°C° 0 mm 1 mps 609 mmHg 36%
    23:00 +22°C° 0 mm 1 mps 609 mmHg 38%

    Tomorrow, 21 June, Friday

    Time Temperature Precipitation Wind Pressure Humidity
    00:00 +22°C° 0 mm 1 mps 609 mmHg 40%
    01:00 +21°C° 0 mm 1 mps 608 mmHg 42%
    02:00 +21°C° 0 mm 1 mps 608 mmHg 44%
    03:00 +20°C° 0 mm 1 mps 608 mmHg 46%
    04:00 +19°C° 0 mm 1 mps 608 mmHg 47%
    05:00 +19°C° 0 mm 1 mps 607 mmHg 49%
    06:00 +20°C° 0 mm 1 mps 608 mmHg 43%
    07:00 +22°C° 0 mm 1 mps 609 mmHg 38%
    08:00 +23°C° 0 mm 1 mps 610 mmHg 33%
    09:00 +25°C° 0 mm 1 mps 610 mmHg 30%
    10:00 +26°C° 0 mm 2 mps 610 mmHg 27%
    11:00 +27°C° 0 mm 2 mps 611 mmHg 24%
    12:00 +28°C° 0 mm 2 mps 611 mmHg 23%
    13:00 +29°C° 0 mm 2 mps 611 mmHg 22%
    14:00 +30°C° 0 mm 3 mps 611 mmHg 21%
    15:00 +30°C° 0 mm 3 mps 610 mmHg 23%
    16:00 +29°C° 0 mm 3 mps 610 mmHg 24%
    17:00 +29°C° 0 mm 4 mps 610 mmHg 25%
    18:00 +28°C° 0 mm 4 mps 610 mmHg 28%
    19:00 +27°C° 0 mm 4 mps 610 mmHg 32%
    20:00 +26°C° 0 mm 4 mps 610 mmHg 36%
    21:00 +25°C° 0.1 mm 3 mps 610 mmHg 39%
    22:00 +24°C° 0.1 mm 1 mps 610 mmHg 42%
    23:00 +21°C° 0.1 mm 0 mps 610 mmHg 44%

    Day after tomorrow, 22 June, Saturday

    Time Temperature Precipitation Wind Pressure Humidity
    00:00 +21°C° 0 mm 0 mps 610 mmHg 46%
    01:00 +20°C° 0 mm 0 mps 609 mmHg 47%
    02:00 +22°C° 0 mm 1 mps 609 mmHg 48%
    03:00 +21°C° 0 mm 1 mps 609 mmHg 49%
    04:00 +21°C° 0 mm 1 mps 608 mmHg 50%
    05:00 +20°C° 0 mm 1 mps 608 mmHg 52%
    06:00 +22°C° 0 mm 1 mps 609 mmHg 46%
    07:00 +23°C° 0 mm 1 mps 610 mmHg 40%
    08:00 +24°C° 0 mm 1 mps 610 mmHg 34%
    09:00 +26°C° 0 mm 1 mps 611 mmHg 30%
    10:00 +27°C° 0 mm 1 mps 611 mmHg 27%
    11:00 +28°C° 0 mm 2 mps 612 mmHg 23%
    12:00 +28°C° 0 mm 3 mps 611 mmHg 25%
    13:00 +29°C° 0 mm 4 mps 611 mmHg 26%
    14:00 +29°C° 0 mm 5 mps 611 mmHg 28%
    15:00 +28°C° 0.1 mm 5 mps 611 mmHg 29%
    16:00 +28°C° 0.1 mm 6 mps 610 mmHg 30%
    17:00 +28°C° 0.1 mm 7 mps 610 mmHg 31%
    18:00 +27°C° 0 mm 5 mps 610 mmHg 32%
    19:00 +26°C° 0 mm 3 mps 610 mmHg 34%
    20:00 +25°C° 0 mm 2 mps 610 mmHg 35%
    21:00 +24°C° 0 mm 2 mps 610 mmHg 35%
    22:00 +23°C° 0 mm 1 mps 610 mmHg 34%
    23:00 +23°C° 0 mm 1 mps 610 mmHg 34%

    23 June, Sunday

    Time Temperature Precipitation Wind Pressure Humidity
    00:00 +22°C° 0 mm 1 mps 610 mmHg 33%
    01:00 +21°C° 0 mm 1 mps 609 mmHg 33%
    02:00 +20°C° 0 mm 1 mps 608 mmHg 32%
    03:00 +20°C° 0 mm 1 mps 608 mmHg 32%
    04:00 +19°C° 0 mm 1 mps 608 mmHg 32%
    05:00 +19°C° 0 mm 1 mps 608 mmHg 32%
    06:00 +21°C° 0 mm 1 mps 608 mmHg 28%
    07:00 +22°C° 0 mm 1 mps 609 mmHg 25%
    08:00 +24°C° 0 mm 1 mps 610 mmHg 21%
    09:00 +25°C° 0 mm 2 mps 611 mmHg 19%
    10:00 +27°C° 0 mm 2 mps 611 mmHg 17%
    11:00 +28°C° 0 mm 2 mps 611 mmHg 15%
    12:00 +29°C° 0 mm 2 mps 611 mmHg 15%
    13:00 +30°C° 0 mm 2 mps 611 mmHg 14%
    14:00 +31°C° 0 mm 2 mps 611 mmHg 14%
    15:00 +31°C° 0 mm 3 mps 611 mmHg 14%
    16:00 +32°C° 0 mm 4 mps 611 mmHg 15%
    17:00 +32°C° 0 mm 6 mps 611 mmHg 15%
    18:00 +29°C° 0 mm 5 mps 611 mmHg 17%
    19:00 +27°C° 0 mm 4 mps 610 mmHg 19%
    20:00 +26°C° 0 mm 4 mps 610 mmHg 22%
    21:00 +25°C° 0 mm 3 mps 610 mmHg 24%
    22:00 +24°C° 0 mm 2 mps 610 mmHg 26%
    23:00 +23°C° 0 mm 1 mps 610 mmHg 27%

    24 June, Monday

    Time Temperature Precipitation Wind Pressure Humidity
    00:00 +22°C° 0 mm 1 mps 609 mmHg 28%
    01:00 +21°C° 0 mm 1 mps 609 mmHg 29%
    02:00 +21°C° 0 mm 1 mps 609 mmHg 30%
    03:00 +20°C° 0 mm 1 mps 608 mmHg 31%
    04:00 +20°C° 0 mm 1 mps 608 mmHg 32%
    05:00 +19°C° 0 mm 1 mps 608 mmHg 32%
    06:00 +21°C° 0 mm 1 mps 609 mmHg 29%
    07:00 +22°C° 0 mm 1 mps 609 mmHg 26%
    08:00 +24°C° 0 mm 1 mps 610 mmHg 23%
    09:00 +25°C° 0 mm 1 mps 610 mmHg 21%
    10:00 +27°C° 0 mm 1 mps 611 mmHg 20%
    11:00 +28°C° 0 mm 2 mps 611 mmHg 18%
    12:00 +29°C° 0 mm 2 mps 611 mmHg 18%
    13:00 +30°C° 0 mm 1 mps 611 mmHg 17%
    14:00 +31°C° 0 mm 1 mps 611 mmHg 17%
    15:00 +31°C° 0 mm 2 mps 611 mmHg 17%
    16:00 +31°C° 0 mm 3 mps 611 mmHg 18%
    17:00 +32°C° 0 mm 4 mps 611 mmHg 18%
    18:00 +30°C° 0 mm 3 mps 611 mmHg 23%
    19:00 +28°C° 0 mm 2 mps 611 mmHg 27%
    20:00 +26°C° 0 mm 1 mps 610 mmHg 32%
    21:00 +26°C° 0 mm 1 mps 611 mmHg 33%
    22:00 +25°C° 0 mm 1 mps 611 mmHg 35%
    23:00 +25°C° 0 mm 2 mps 611 mmHg 37%

    25 June, Tuesday

    Time Temperature Precipitation Wind Pressure Humidity
    00:00 +24°C° 0 mm 1 mps 610 mmHg 39%
    01:00 +23°C° 0 mm 1 mps 610 mmHg 42%
    02:00 +23°C° 0 mm 1 mps 609 mmHg 45%
    03:00 +20°C° 0 mm 0 mps 609 mmHg 47%
    04:00 +19°C° 0 mm 0 mps 609 mmHg 48%
    05:00 +19°C° 0 mm 0 mps 608 mmHg 50%
    06:00 +20°C° 0 mm 0 mps 609 mmHg 45%
    07:00 +22°C° 0 mm 0 mps 610 mmHg 39%
    08:00 +23°C° 0 mm 0 mps 610 mmHg 34%
    09:00 +26°C° 0 mm 1 mps 611 mmHg 31%
    10:00 +27°C° 0 mm 1 mps 611 mmHg 28%
    11:00 +29°C° 0 mm 1 mps 611 mmHg 25%
    12:00 +28°C° 0 mm 2 mps 611 mmHg 27%
    13:00 +28°C° 0 mm 3 mps 610 mmHg 29%
    14:00 +28°C° 0 mm 4 mps 610 mmHg 31%
    15:00 +28°C° 0.1 mm 4 mps 610 mmHg 31%
    16:00 +28°C° 0.1 mm 4 mps 609 mmHg 30%
    17:00 +28°C° 0.1 mm 3 mps 609 mmHg 29%
    18:00 +27°C° 0 mm 3 mps 609 mmHg 29%
    19:00 +26°C° 0 mm 2 mps 609 mmHg 30%
    20:00 +25°C° 0 mm 2 mps 610 mmHg 30%
    21:00 +25°C° 0 mm 2 mps 609 mmHg 31%
    22:00 +24°C° 0 mm 2 mps 609 mmHg 31%
    23:00 +23°C° 0 mm 2 mps 609 mmHg 31%
    Show more